Weather in Aden

Yemen     12°53′10″N   44°57′41″E
temp.,
°C
wind,
m/s
gust,
m/s
humid.,
%
clouds,
%
prec.,
mm/h
press.,
hPa
HPBL,
m
29 november, mon
mon2900:00+25ne12640 0.0 101468
03:00+24e22650 0.0 101467
06:00+24ene346824 0.0 101591
09:00+28e44505 0.0 1017808
12:00+31ese65422 0.0 10141272
15:00+30se65442 0.0 10121103
18:00+27ese44555 0.0 1014293
21:00+26e23610 0.0 1016142
30 november, tue
tue3000:00+25ene22670 0.0 1015104
03:00+24ene33710 0.0 1014102
06:00+23ne33740 0.0 1015111
09:00+28ene33540 0.0 1016830
12:00+31se64400 0.0 10131504
15:00+30sse65440 0.0 10111024
18:00+27se33520 0.0 1013286
21:00+25se11570 0.0 1015145
1 december, wed
wed100:00+25e22600 0.0 101499
03:00+24ne34630 0.0 1013111
06:00+23ne34680 0.0 1014101
09:00+28ene56480 0.0 10151031
12:00+30ese76390 0.0 10121472
15:00+29se65390 0.0 10101171
18:00+26ese34465 0.0 1012268
21:00+25ene34480 0.0 1014157
2 december, thu
thu200:00+24ene33520 0.0 1013134
03:00+23ne34570 0.0 1012112
06:00+23ne45600 0.0 1014138
09:00+27e66470 0.0 10161121
12:00+29ese76410 0.0 10131416
15:00+29ese66410 0.0 10121307
18:00+26e57520 0.0 1013342
21:00+25ene46550 0.0 1015223
3 december, fri
fri300:00+24ne34590 0.0 1015148
03:00+23ne34630 0.0 1013137
06:00+23ne35660 0.0 1015134
09:00+27e55520 0.0 10171139
12:00+29ese65470 0.0 10141414
15:00+28ese65480 0.0 10121286
18:00+26ese45582 0.0 1014350
21:00+25ene34610 0.0 1016187